Wetbulb
46.26 46.25 45.21 44.26 42.91 43.85 41.50 42.88 39.36 41.30 41.53 45.06 47.60 47.49 47.84 48.75 48.07 47.09 47.67 48.42 48.74 48.81 49.18 49.65 49.67 49.75 49.63 49.15 48.62 47.77 46.08 45.11 44.64 44.87 44.15 43.15 42.20 41.73 41.06 40.53 39.90 39.63 38.61 38.07
43.78 45.32 44.32 41.63 42.90 44.53 44.73 44.13 43.23 43.44 43.01 48.64 48.64 49.23 48.00 48.13 47.72 46.60 46.98 47.55 47.61 47.74 47.50 47.34 47.08 46.64 46.73 45.88 45.56 45.15 43.58 42.25 42.51 41.98 40.84 40.13 39.95 39.74 39.24 38.20 37.81 37.61 36.33 36.04
39.42 44.46 43.24 40.00 43.33 44.44 45.56 46.72 46.00 41.94 46.84 48.22 46.77 47.09 47.63 47.84 47.26 46.36 46.63 46.77 46.60 46.22 45.98 46.19 46.00 45.89 44.41 43.95 44.07 42.70 41.61 40.32 39.32 39.27 38.86 38.28 38.01 37.42 36.48 35.83 35.64 35.11 34.77 34.51
41.00 42.94 31.72 44.24 49.30 48.79 46.58 47.16 48.73 48.08 48.96 48.77 47.64 48.22 49.14 49.16 47.24 46.66 46.42 45.88 45.68 45.79 45.79 45.38 45.08 43.98 43.58 42.79 41.74 40.25 38.98 38.29 38.16 37.62 36.93 36.74 36.20 34.98 34.86 34.69 33.87 33.61 33.49 33.58
37.80 38.57 41.92 44.51 47.08 45.80 44.59 44.80 49.15 48.33 48.15 47.25 47.27 47.12 46.28 48.47 48.38 47.10 46.51 46.33 46.10 45.88 45.03 44.20 43.32 43.15 41.74 39.98 39.29 38.12 37.12 36.69 36.58 36.52 35.46 34.97 33.63 33.47 33.71 33.06 32.77 32.39 32.68 32.40
41.67 36.01 33.62 44.59 48.31 50.32 48.79 40.61 49.87 49.72 47.96 46.08 45.68 40.95 42.35 47.40 47.38 46.30 46.33 45.65 44.58 44.00 43.58 42.77 42.42 41.92 39.75 37.81 36.96 35.80 36.08 36.03 36.11 35.85 34.35 33.43 33.00 32.73 32.98 32.51 32.06 32.25 31.93 31.67
40.27 38.94 42.11 48.22 47.86 48.65 38.74 43.22 49.53 50.04 49.40 47.75 44.86 47.75 47.03 47.52 46.02 46.05 44.88 43.77 43.49 42.81 41.40 40.84 41.43 40.46 37.46 36.13 34.75 35.71 35.98 35.80 35.18 34.66 33.89 33.25 32.78 32.57 31.86 31.18 31.13 30.27 29.53 29.78
41.36 38.08 35.13 50.36 46.99 42.61 48.93 51.05 50.39 50.25 50.46 48.17 47.31 46.77 46.31 45.80 44.89 43.70 42.73 42.21 41.91 40.26 39.54 40.20 39.91 38.36 35.22 33.64 34.82 35.17 34.76 34.21 33.67 33.62 32.95 32.70 31.88 31.60 31.13 29.83 28.64 27.25 26.89 27.26
43.59 43.44 51.76 52.85 50.36 51.86 52.89 50.24 50.36 50.65 49.52 47.93 46.21 45.32 45.36 44.01 43.50 42.45 41.85 40.95 40.80 38.90 37.33 37.31 37.15 36.51 33.37 33.06 33.83 33.80 33.28 32.66 32.51 32.47 31.59 32.43 30.75 29.93 28.70 28.24 26.63 24.92 25.02 24.66
47.38 48.50 49.71 51.33 51.19 52.46 52.08 51.18 51.65 51.56 49.14 47.82 45.61 45.26 44.11 43.22 42.11 41.86 41.34 40.24 39.82 37.88 35.97 34.45 34.82 34.14 33.08 33.08 33.42 32.67 31.60 31.54 31.82 30.58 30.35 31.15 31.01 29.90 27.90 26.98 25.31 24.55 23.84 22.73
47.19 49.81 51.18 51.38 50.81 51.27 51.33 51.74 50.68 49.97 48.73 47.54 46.07 44.25 43.50 42.36 41.93 41.34 40.62 40.14 39.31 37.28 35.41 34.03 33.84 32.68 32.82 32.49 32.42 30.95 31.04 30.93 30.14 29.91 30.13 29.51 29.77 28.48 27.84 28.11 26.26 24.34 24.22 23.37
44.70 51.14 51.12 50.32 51.42 51.82 50.89 49.98 49.66 48.24 47.27 46.91 46.00 44.13 43.67 42.34 42.07 40.82 39.80 39.29 37.56 36.23 34.88 33.66 32.90 32.17 32.17 32.14 31.48 30.01 29.21 28.83 28.44 28.48 29.10 28.65 27.62 27.64 28.12 27.01 27.12 26.55 26.06 24.54
50.22 52.88 53.45 54.10 52.40 51.57 50.73 49.80 49.29 48.34 47.13 45.43 45.58 44.44 43.44 41.96 41.18 38.47 39.15 37.76 36.17 35.02 34.39 33.18 32.01 31.01 31.16 31.23 30.70 29.76 27.88 27.54 27.68 27.90 27.73 27.07 26.58 26.59 25.35 28.15 29.31 28.99 27.45 26.65
53.59 53.65 51.85 52.26 49.78 51.28 50.65 49.77 48.45 48.00 46.99 45.84 44.81 44.11 42.85 40.81 38.75 38.82 37.42 36.89 35.49 34.04 32.94 32.07 30.62 29.22 30.53 30.44 29.38 29.00 28.57 26.73 26.55 26.54 26.90 26.33 25.88 26.69 26.56 25.57 24.47 25.33 27.74 27.93
52.50 53.12 52.79 53.63 51.69 50.21 49.80 48.43 46.37 44.91 44.68 43.64 43.69 42.28 40.79 37.80 37.78 37.00 36.51 35.26 33.75 32.58 31.46 30.83 29.17 28.31 29.84 29.54 28.19 28.28 27.83 26.75 25.51 25.79 26.78 25.79 26.86 26.43 26.24 25.52 24.83 24.54 24.93 25.33
51.84 51.49 51.53 50.48 49.74 48.96 47.76 46.75 44.64 43.63 43.11 41.98 41.04 40.03 38.63 39.05 37.39 35.68 34.27 33.42 30.90 29.19 28.45 23.53 27.03 28.10 28.78 28.13 27.08 28.11 27.74 24.74 24.60 25.24 26.06 25.93 25.81 25.17 25.01 24.47 24.07 23.38 22.96 22.90
49.66 47.95 49.24 48.37 47.94 47.06 46.22 46.10 44.83 43.06 41.70 40.59 39.42 38.44 38.57 36.71 34.91 33.31 32.63 33.19 31.63 30.28 29.73 28.71 27.54 28.04 27.67 26.21 25.13 26.41 26.52 26.35 23.37 25.87 25.28 25.01 24.54 23.46 24.28 23.84 22.97 22.48 22.37 23.34
51.41 50.74 50.24 50.00 47.61 46.04 45.07 44.78 43.50 42.00 40.21 39.61 38.87 37.61 34.57 32.47 31.79 31.01 29.92 29.51 28.46 27.68 28.97 27.28 27.21 27.24 26.79 23.86 23.26 25.65 25.73 25.02 24.85 24.35 24.49 23.99 23.16 23.49 23.93 23.34 22.56 21.89 21.95 22.69
51.55 50.00 50.34 49.61 48.15 45.90 44.68 43.24 42.00 41.10 39.26 37.99 35.15 32.99 33.03 32.09 31.44 29.90 29.10 25.54 24.61 26.42 26.29 25.37 23.28 25.22 25.11 21.14 21.97 25.06 24.73 23.95 23.79 23.67 23.64 22.20 23.30 23.22 22.73 22.55 21.98 21.79 21.51 21.41
50.56 51.00 50.12 48.31 46.98 45.34 42.99 42.14 41.00 39.28 38.35 36.13 32.36 30.73 29.68 27.90 27.32 25.39 25.97 25.72 29.20 28.23 27.46 24.92 26.09 25.35 24.40 23.26 22.41 23.56 23.67 22.96 22.27 22.49 22.87 22.21 22.00 21.08 21.68 20.64 21.23 21.21 20.51 20.65
50.44 48.95 46.52 44.93 43.85 43.09 41.01 39.22 37.71 35.82 35.23 31.78 30.45 27.72 26.84 25.63 25.04 24.86 25.63 25.41 25.68 26.77 23.88 22.91 23.31 22.35 22.06 20.26 20.69 23.36 22.37 21.64 21.33 21.20 21.19 20.81 20.38 19.79 19.49 19.88 20.33 19.85 19.64 19.53
48.12 44.00 40.61 40.37 39.38 37.83 37.73 38.22 36.34 32.12 30.52 29.40 27.56 25.93 24.87 24.85 24.97 25.63 25.58 26.50 24.72 23.19 25.16 23.99 19.89 14.92 17.34 14.34 22.67 21.84 21.04 20.46 20.24 20.18 19.71 19.82 18.70 18.80 18.55 18.63 18.74 18.62 18.93 18.43
42.80 39.04 36.64 35.77 34.73 34.26 34.04 31.95 30.84 30.08 28.16 26.70 25.51 25.31 26.33 26.53 27.72 26.33 23.94 25.38 24.14 22.70 23.99 18.71 13.21 12.60 12.76 20.57 21.23 20.93 20.14 20.25 19.40 18.70 18.68 18.12 18.12 17.82 17.60 17.23 17.25 17.88 16.99 16.48
38.78 36.61 34.48 33.72 31.84 30.36 28.34 29.14 29.24 28.48 27.26 26.67 26.78 27.49 27.63 27.42 28.45 28.88 25.41 20.07 18.27 21.06 20.22 16.16 12.68 11.99 9.68 21.53 20.45 19.50 19.43 19.60 18.19 16.90 17.47 13.52 17.20 16.92 16.36 16.57 15.95 15.98 15.61 15.18
34.03 32.56 30.96 30.77 29.81 28.76 28.50 28.20 27.13 26.95 27.42 28.13 27.94 29.42 29.69 30.37 27.07 25.37 24.29 20.31 17.99 19.14 15.48 10.53 11.24 12.19 20.07 20.07 18.95 17.74 17.94 18.73 16.73 15.92 15.53 15.48 15.83 14.63 15.04 14.63 13.62 13.57 13.91 14.12
31.49 31.25 31.98 31.91 29.81 28.96 27.76 27.78 26.39 27.81 27.57 27.19 28.60 29.30 29.10 27.57 25.59 23.55 21.95 19.74 21.20 20.50 20.02 16.24 18.20 18.90 19.76 18.85 17.69 17.22 16.76 17.15 16.67 15.07 13.17 14.79 14.63 14.31 13.62 12.42 11.65 11.85 12.31 13.01
32.42 31.84 30.76 29.45 29.64 28.94 28.94 28.62 28.09 27.20 28.19 28.11 26.96 27.67 26.48 25.70 24.72 22.93 20.62 21.20 20.98 20.63 20.09 19.22 18.58 15.66 17.01 16.34 17.92 17.31 17.06 17.02 13.25 13.45 13.81 13.87 13.12 12.99 11.51 10.76 10.59 11.07 11.34 12.40
MSLP
1010.68 1010.53 1010.98 1011.15 1011.81 1012.69 1013.54 1013.20 1013.17 1012.46 1011.93 1011.52 1012.42 1013.62 1015.13 1016.37 1017.76 1018.59 1019.45 1020.17 1020.71 1021.28 1021.66 1021.99 1022.30 1022.80 1023.34 1023.99 1024.65 1025.40 1026.35 1027.29 1028.03 1028.47 1028.80 1029.07 1029.26 1029.26 1029.23 1029.30 1029.33 1029.27 1029.20 1029.15
1011.12 1010.94 1010.78 1010.78 1010.70 1010.94 1011.87 1012.31 1012.16 1011.94 1011.55 1012.03 1013.35 1014.40 1015.59 1016.48 1017.70 1018.91 1019.92 1020.72 1021.39 1022.01 1022.51 1023.00 1023.54 1024.07 1024.70 1025.37 1026.01 1026.68 1027.43 1028.09 1028.59 1028.94 1029.15 1029.44 1029.55 1029.56 1029.63 1029.71 1029.64 1029.53 1029.49 1029.42
1011.49 1011.15 1010.78 1010.64 1010.23 1010.05 1010.11 1010.25 1010.53 1010.92 1011.32 1012.24 1013.77 1014.90 1015.83 1016.93 1018.18 1019.46 1020.45 1021.34 1022.05 1022.73 1023.39 1024.02 1024.62 1025.32 1025.99 1026.57 1027.14 1027.71 1028.23 1028.76 1029.21 1029.45 1029.61 1029.85 1029.94 1029.96 1030.09 1030.08 1030.02 1029.84 1029.70 1029.58
1012.23 1011.61 1011.68 1010.45 1009.63 1009.19 1009.32 1009.53 1009.57 1009.91 1011.12 1012.49 1014.29 1015.75 1016.59 1017.60 1018.83 1019.92 1021.02 1021.97 1022.80 1023.57 1024.26 1024.98 1025.69 1026.36 1026.94 1027.48 1028.05 1028.55 1028.99 1029.34 1029.68 1029.95 1030.06 1030.25 1030.29 1030.40 1030.34 1030.29 1030.19 1030.01 1029.83 1029.78
1012.64 1012.09 1011.16 1009.91 1009.08 1009.13 1009.14 1009.22 1009.45 1010.00 1011.42 1013.57 1015.36 1016.64 1017.78 1018.59 1019.51 1020.56 1021.65 1022.70 1023.60 1024.43 1025.18 1025.83 1026.46 1026.99 1027.53 1028.16 1028.70 1029.23 1029.65 1029.95 1030.19 1030.36 1030.44 1030.54 1030.66 1030.62 1030.56 1030.49 1030.33 1030.18 1030.05 1029.92
1012.69 1012.30 1010.77 1009.16 1008.58 1008.78 1009.12 1009.02 1009.18 1010.15 1011.97 1013.85 1015.67 1016.64 1018.30 1019.20 1020.24 1021.38 1022.45 1023.50 1024.44 1025.30 1026.03 1026.67 1027.26 1027.75 1028.27 1028.88 1029.42 1029.86 1030.16 1030.33 1030.48 1030.69 1030.87 1030.83 1030.99 1030.93 1030.87 1030.77 1030.54 1030.46 1030.28 1030.19
1012.05 1011.72 1010.27 1008.95 1008.89 1009.29 1009.59 1009.62 1009.66 1010.59 1012.20 1014.05 1015.45 1016.08 1018.18 1019.67 1021.00 1022.11 1023.17 1024.23 1025.28 1026.07 1026.79 1027.40 1027.84 1028.31 1028.87 1029.53 1029.96 1030.28 1030.48 1030.61 1030.76 1030.97 1031.04 1031.22 1031.28 1031.17 1031.06 1030.95 1030.93 1030.84 1030.84 1030.78
1011.62 1011.25 1010.32 1008.97 1009.18 1009.73 1009.70 1009.82 1010.36 1011.35 1012.77 1014.65 1016.30 1017.58 1018.92 1020.23 1021.46 1022.66 1023.76 1024.89 1025.78 1026.60 1027.28 1027.83 1028.28 1028.82 1029.52 1030.12 1030.47 1030.69 1030.82 1030.98 1031.13 1031.30 1031.48 1031.50 1031.43 1031.33 1031.29 1031.31 1031.38 1031.58 1031.54 1031.21
1010.09 1009.69 1009.06 1008.32 1008.80 1009.39 1010.11 1010.59 1011.21 1012.24 1014.01 1015.33 1016.84 1018.22 1019.50 1020.72 1021.99 1023.18 1024.24 1025.25 1026.26 1027.23 1028.07 1028.83 1029.35 1029.71 1030.44 1030.98 1031.02 1031.08 1031.17 1031.34 1031.47 1031.63 1031.92 1031.67 1031.62 1031.53 1031.68 1031.84 1032.17 1032.36 1032.07 1031.83
1008.74 1008.32 1008.14 1008.37 1009.09 1009.50 1010.18 1011.15 1011.97 1013.18 1014.48 1015.82 1017.09 1018.54 1019.86 1021.16 1022.42 1023.46 1024.55 1025.62 1026.72 1027.71 1028.60 1029.48 1030.23 1030.76 1031.21 1031.53 1031.53 1031.49 1031.53 1031.60 1031.72 1032.02 1032.02 1031.86 1031.78 1031.79 1032.06 1032.23 1032.62 1032.61 1032.51 1032.45
1007.80 1007.72 1007.67 1008.32 1009.22 1009.77 1010.36 1011.53 1012.77 1013.97 1014.95 1016.05 1017.41 1018.87 1020.11 1021.33 1022.48 1023.64 1024.83 1025.98 1027.00 1028.00 1028.88 1029.82 1030.63 1031.28 1031.70 1031.92 1031.98 1031.95 1031.88 1031.92 1032.18 1032.31 1032.09 1031.98 1031.94 1032.07 1032.09 1032.26 1032.63 1032.71 1032.64 1032.65
1007.53 1007.48 1007.68 1008.34 1009.17 1010.02 1010.67 1011.91 1013.10 1014.14 1015.33 1016.69 1017.81 1019.03 1020.32 1021.61 1022.83 1024.00 1025.19 1026.36 1027.48 1028.45 1029.31 1030.24 1031.01 1031.64 1032.07 1032.33 1032.40 1032.47 1032.33 1032.46 1032.64 1032.49 1032.21 1032.09 1032.20 1032.07 1032.39 1032.31 1032.32 1032.39 1032.46 1032.56
1007.14 1007.07 1007.17 1007.63 1008.78 1010.03 1011.18 1012.34 1013.57 1014.61 1015.68 1016.77 1018.22 1019.42 1020.72 1022.03 1023.41 1024.63 1025.82 1027.00 1028.03 1028.88 1029.79 1030.69 1031.44 1032.04 1032.55 1032.75 1032.79 1032.80 1032.94 1033.05 1032.97 1032.67 1032.51 1032.47 1032.47 1032.22 1032.06 1031.88 1031.91 1031.84 1032.07 1032.03
1006.95 1007.48 1007.74 1008.11 1008.94 1010.20 1011.68 1012.83 1014.06 1015.29 1016.44 1017.48 1018.66 1020.07 1021.34 1022.71 1024.29 1025.41 1026.45 1027.60 1028.67 1029.63 1030.48 1031.22 1032.04 1032.73 1033.05 1033.17 1033.17 1033.20 1033.22 1033.43 1033.42 1033.26 1032.95 1032.87 1032.75 1032.32 1032.16 1031.97 1031.72 1031.66 1031.74 1031.55
1007.10 1007.70 1008.30 1008.59 1009.57 1010.88 1012.12 1013.35 1014.51 1015.78 1016.88 1018.16 1019.49 1020.73 1022.09 1023.51 1024.84 1026.17 1027.35 1028.43 1029.46 1030.50 1031.23 1031.86 1032.60 1033.18 1033.50 1033.60 1033.52 1033.45 1033.33 1033.54 1033.89 1033.64 1033.18 1033.03 1032.72 1032.55 1032.38 1032.17 1032.06 1031.89 1031.69 1031.43
1007.06 1007.80 1008.63 1009.34 1010.09 1011.24 1012.43 1013.84 1014.95 1016.15 1017.48 1018.80 1020.19 1021.59 1023.05 1024.20 1025.66 1027.12 1028.26 1029.13 1030.04 1031.06 1032.20 1032.99 1033.24 1033.65 1033.91 1033.97 1034.01 1033.65 1033.59 1033.89 1033.91 1033.78 1033.29 1033.15 1033.06 1032.94 1032.72 1032.53 1032.35 1032.21 1032.01 1031.85
1007.18 1007.93 1008.96 1009.78 1010.52 1011.38 1012.53 1013.88 1015.22 1016.53 1018.11 1019.54 1020.96 1022.41 1023.62 1025.09 1026.68 1027.95 1028.95 1029.61 1030.63 1031.70 1032.55 1033.08 1033.56 1033.96 1034.18 1034.57 1034.56 1034.11 1033.91 1033.86 1033.98 1033.69 1033.63 1033.50 1033.53 1033.54 1033.12 1032.79 1032.65 1032.61 1032.45 1032.32
1006.99 1007.44 1008.26 1009.29 1010.51 1011.52 1013.02 1014.52 1015.90 1017.27 1018.75 1020.31 1021.81 1023.10 1024.51 1025.92 1027.28 1028.61 1029.69 1030.67 1031.53 1032.28 1032.84 1033.71 1034.07 1034.15 1034.34 1035.26 1035.18 1034.46 1034.25 1034.25 1034.20 1034.07 1034.01 1033.97 1034.06 1033.78 1033.33 1033.11 1033.07 1033.02 1032.84 1032.69
1006.41 1007.36 1008.46 1009.47 1010.86 1012.08 1013.23 1014.88 1016.61 1018.16 1019.70 1021.20 1022.84 1024.30 1025.52 1026.77 1028.10 1029.44 1030.56 1031.46 1031.97 1032.49 1033.37 1034.26 1034.85 1034.56 1034.65 1035.83 1035.59 1034.71 1034.61 1034.69 1034.62 1034.45 1034.39 1034.40 1034.06 1033.95 1033.85 1033.61 1033.50 1033.39 1033.27 1033.09
1006.62 1007.27 1008.25 1009.88 1011.48 1012.61 1014.03 1015.74 1017.27 1018.99 1020.56 1022.17 1023.95 1025.39 1026.56 1027.78 1029.01 1030.27 1031.33 1031.81 1031.84 1032.53 1033.40 1034.30 1034.08 1034.40 1034.93 1035.41 1035.61 1035.07 1034.98 1035.08 1035.05 1034.85 1034.68 1034.66 1034.54 1034.64 1034.40 1034.22 1034.04 1033.75 1033.88 1033.64
1006.46 1007.53 1008.99 1010.61 1012.15 1013.59 1014.98 1016.48 1018.01 1019.68 1021.41 1023.27 1024.77 1026.30 1027.28 1028.59 1029.84 1030.75 1031.46 1031.95 1032.89 1033.42 1034.28 1034.59 1034.65 1035.15 1035.61 1036.05 1035.89 1035.19 1035.42 1035.53 1035.55 1035.31 1035.17 1035.19 1035.28 1035.22 1035.15 1034.99 1034.64 1034.43 1034.38 1034.19
1006.75 1008.39 1010.17 1011.88 1013.31 1014.84 1016.34 1017.61 1019.18 1020.91 1022.61 1024.33 1026.03 1027.25 1028.06 1029.27 1030.36 1031.08 1031.57 1032.24 1033.53 1034.16 1034.02 1034.51 1035.81 1036.81 1036.60 1037.00 1035.59 1035.70 1035.93 1036.14 1036.05 1035.89 1035.86 1035.81 1035.86 1035.84 1035.73 1035.48 1035.17 1034.92 1034.74 1034.61
1008.08 1009.93 1011.70 1013.24 1014.44 1016.24 1017.85 1019.45 1020.76 1022.08 1023.77 1025.30 1026.64 1027.63 1028.27 1029.32 1030.16 1031.00 1032.08 1033.05 1033.78 1034.15 1034.30 1035.84 1037.07 1037.09 1037.05 1036.31 1036.15 1036.12 1036.41 1036.53 1036.51 1036.50 1036.53 1036.53 1036.38 1036.29 1036.15 1035.90 1035.65 1035.38 1035.19 1035.00
1009.60 1011.41 1013.43 1014.80 1016.06 1017.48 1019.46 1021.29 1022.36 1023.76 1024.97 1026.31 1027.36 1027.86 1028.52 1029.24 1030.48 1031.48 1032.66 1033.81 1034.64 1034.66 1035.31 1036.51 1037.21 1037.19 1037.48 1036.33 1036.60 1036.68 1036.78 1036.86 1036.96 1037.16 1036.99 1037.04 1036.80 1036.61 1036.50 1036.24 1035.97 1035.80 1035.67 1035.36
1011.30 1012.91 1014.41 1015.82 1017.28 1018.79 1020.25 1021.77 1023.36 1024.76 1025.78 1026.71 1027.61 1028.36 1028.90 1029.83 1030.78 1032.43 1033.39 1034.47 1035.10 1035.20 1036.23 1037.21 1037.31 1037.25 1036.54 1036.60 1036.85 1037.20 1037.28 1037.04 1037.39 1037.41 1037.33 1037.20 1037.01 1036.94 1036.69 1036.49 1036.41 1036.23 1036.02 1035.67
1012.95 1014.11 1015.35 1016.72 1018.15 1019.44 1020.77 1022.05 1023.44 1024.64 1025.54 1026.64 1027.80 1028.64 1029.58 1030.60 1031.69 1032.85 1033.82 1034.42 1034.65 1034.92 1035.68 1036.81 1036.84 1036.76 1036.60 1036.75 1037.10 1037.31 1037.44 1037.26 1037.29 1037.46 1037.66 1037.33 1037.24 1037.10 1036.99 1036.93 1036.83 1036.56 1036.28 1035.92
1014.47 1015.22 1016.35 1017.99 1019.33 1020.51 1021.43 1022.43 1023.35 1024.57 1025.63 1026.55 1027.72 1029.19 1030.16 1031.14 1032.02 1032.94 1033.84 1034.47 1034.87 1035.08 1035.56 1036.18 1036.57 1036.98 1036.99 1037.17 1037.04 1037.21 1037.38 1037.39 1037.67 1037.72 1037.69 1037.61 1037.60 1037.48 1037.42 1037.29 1037.05 1036.73 1036.38 1035.92
Wind_Speed
11 9 8 9 10 12 7 12 8 12 15 8 9 12 9 10 11 10 9 10 11 11 10 11 12 12 12 12 11 12 11 10 7 6 7 6 6 6 6 6 7 7 8 9
9 11 11 10 11 12 16 14 15 15 14 12 13 13 9 8 11 10 10 12 13 14 14 13 12 11 12 12 11 11 10 8 8 6 7 6 6 6 7 8 7 8 8 8
5 10 9 8 12 13 13 15 15 11 8 12 12 9 10 10 12 12 13 13 14 14 13 11 11 11 11 10 10 9 8 8 8 7 7 8 7 8 8 7 7 7 7 7
2 2 1 10 13 6 6 10 10 13 7 11 14 11 11 11 13 14 14 14 13 12 12 12 11 11 10 10 9 8 8 8 8 8 7 8 8 8 7 7 7 7 6 7
3 6 10 15 9 9 7 8 6 3 15 17 15 14 11 12 14 14 14 12 11 11 11 11 10 9 10 9 9 8 8 8 8 8 8 8 8 8 7 7 7 7 8 7
4 4 5 5 8 4 1 8 8 11 16 17 17 9 9 14 16 16 16 13 12 12 11 10 9 9 9 9 8 8 7 7 7 8 8 8 8 7 6 7 8 8 9 9
7 5 6 9 12 4 5 3 9 8 16 15 12 3 18 17 16 16 15 16 14 12 10 9 8 8 9 8 8 7 7 7 7 8 7 8 6 6 7 7 7 7 10 9
5 2 11 7 11 5 5 8 10 11 10 16 17 18 18 17 17 17 17 16 14 11 10 8 8 8 9 8 7 6 7 7 8 7 8 6 6 5 6 7 8 10 9 7
9 6 4 5 5 8 7 9 9 15 16 18 18 18 18 17 17 16 16 13 12 11 11 9 9 9 8 7 7 7 6 7 6 8 8 6 6 5 6 7 7 7 7 7
9 10 9 8 5 9 10 10 13 14 16 17 18 18 17 16 15 14 13 13 12 12 11 10 9 9 8 7 6 7 7 6 6 7 6 6 5 5 4 4 5 5 6 6
9 11 12 10 10 9 13 14 15 15 16 17 18 18 17 16 15 14 12 11 11 11 10 10 9 8 7 7 7 7 6 7 7 6 5 5 5 3 3 4 0 3 3 4
7 11 8 11 12 12 14 14 15 16 17 17 17 17 17 14 13 13 12 12 11 11 10 9 8 7 7 7 7 7 6 6 5 5 4 4 5 5 4 3 8 10 9 6
9 13 11 8 16 16 13 14 14 15 16 18 17 16 16 14 13 13 13 12 11 11 10 9 8 8 7 6 6 6 5 6 5 5 5 5 6 6 6 1 12 10 10 11
7 7 6 10 14 15 14 15 14 15 15 14 16 16 15 14 14 12 12 11 11 10 10 9 8 7 6 5 6 5 5 3 6 6 6 5 6 5 5 5 6 5 5 4
12 7 6 9 15 15 15 15 17 15 16 16 15 15 15 16 14 13 12 12 11 9 9 8 8 6 5 5 6 4 3 4 5 5 5 4 5 6 6 5 6 6 6 5
14 12 12 12 16 17 18 17 17 16 16 16 15 16 16 14 14 13 13 12 10 8 10 6 5 6 5 6 6 4 4 5 2 5 5 5 5 6 6 6 6 6 6 7
14 14 13 13 17 19 19 16 15 16 16 16 16 17 16 16 14 12 12 9 11 10 9 7 6 5 5 7 6 4 4 5 4 4 5 5 6 6 6 5 6 7 7 7
15 17 17 16 17 17 17 16 16 17 16 17 17 16 15 15 14 12 11 11 9 7 9 9 6 3 7 7 6 4 4 5 5 5 5 5 5 6 6 6 6 7 7 8
13 17 16 17 17 16 17 17 17 16 17 16 14 15 14 13 14 13 11 8 6 9 9 8 3 1 8 6 5 5 4 5 5 5 5 6 6 7 7 6 7 7 7 8
14 17 17 17 17 17 17 17 19 18 16 17 16 14 14 13 13 12 12 10 6 7 10 6 3 5 6 5 5 5 5 5 6 5 5 5 6 7 7 9 8 8 8 8
18 17 19 19 17 16 17 17 19 19 18 16 16 15 16 15 13 11 8 7 9 8 8 6 7 5 7 5 6 5 5 5 5 5 6 6 6 7 8 8 8 7 7 7
14 17 17 16 17 16 16 18 18 17 18 17 16 15 16 15 11 6 1 9 7 6 6 6 7 6 4 6 3 5 5 5 5 5 5 6 6 5 6 6 7 7 7 7
16 16 16 18 19 18 16 16 17 19 18 17 16 16 13 11 8 8 8 9 7 4 7 8 6 4 4 2 4 4 4 4 4 5 5 5 5 5 6 6 6 7 7 7
19 19 18 18 19 21 21 16 17 16 16 15 13 12 13 10 8 6 9 10 8 7 8 7 5 3 5 3 3 3 3 4 4 4 5 6 5 5 6 6 6 6 7 8
19 18 20 20 19 15 20 19 18 17 16 15 14 10 12 8 8 8 7 8 9 8 7 6 4 3 1 3 3 3 3 3 3 4 4 5 5 5 5 6 6 7 7 7
18 14 14 16 14 14 14 15 14 12 13 13 10 9 9 9 10 9 8 7 6 8 8 5 3 2 3 4 2 2 2 3 3 4 4 5 5 5 5 6 6 7 7 7
14 16 15 14 12 13 12 13 14 14 12 12 13 10 10 9 9 9 8 7 6 6 4 5 5 2 2 2 1 2 2 3 3 2 3 4 5 5 5 5 6 6 7 7
Wind_Direction
237 263 196 193 192 181 198 224 216 245 252 285 87 104 103 114 116 108 104 98 95 92 87 83 79 82 82 81 78 79 84 81 72 51 61 42 31 15 19 17 2 351 353 353
223 264 244 252 244 198 202 232 243 258 268 104 114 117 125 137 123 113 112 108 107 106 104 98 96 94 84 77 75 77 77 73 58 48 42 34 21 6 23 8 354 356 355 353
244 250 238 253 242 248 250 232 222 240 277 117 119 117 119 118 122 129 123 122 116 107 103 102 98 93 94 89 83 82 79 69 52 36 29 24 5 19 11 1 356 350 351 352
251 221 332 244 254 253 290 294 285 213 202 96 105 106 106 120 131 132 128 121 117 112 104 97 96 95 91 87 81 74 64 53 45 29 18 14 14 10 1 358 350 345 349 357
145 231 257 285 239 199 214 258 215 244 120 115 116 111 108 125 132 128 124 118 113 108 109 107 105 102 96 88 79 68 52 44 33 20 17 9 15 2 1 349 342 359 352 349
171 226 229 265 82 88 176 253 196 171 134 141 151 152 143 134 130 126 123 118 117 113 102 98 95 92 89 80 69 54 44 30 27 26 9 21 9 359 352 352 354 349 352 8
189 227 262 276 129 148 227 172 126 151 135 150 183 118 133 131 131 130 127 125 124 119 111 107 103 99 91 78 60 43 25 25 27 30 358 25 9 356 357 353 356 3 6 350
211 214 246 260 131 203 92 115 136 127 130 109 112 122 132 136 137 134 134 133 127 122 111 98 97 94 81 63 46 35 20 29 23 20 26 355 8 350 360 9 9 12 347 352
184 203 221 227 97 145 155 138 135 115 122 128 134 140 141 138 140 136 143 136 126 120 109 90 74 80 79 48 27 33 26 32 16 18 11 357 354 5 14 20 26 352 341 357
212 211 223 175 136 146 154 153 125 126 136 141 142 142 142 141 142 147 140 138 131 129 119 106 91 78 69 48 26 33 21 28 19 16 342 358 352 23 11 28 11 348 342 348
229 250 170 179 161 180 148 134 135 138 146 145 144 146 147 148 149 143 139 139 136 127 120 110 98 84 63 50 32 26 14 29 26 356 347 341 11 17 353 77 44 318 324 316
226 221 186 188 168 181 143 143 145 149 144 146 148 149 148 146 142 139 143 133 128 126 122 114 101 85 67 48 31 29 8 36 358 335 344 359 359 333 152 224 214 218 240 248
232 256 211 194 162 170 148 149 151 150 146 148 149 147 144 139 138 137 132 135 138 128 117 106 99 80 62 45 27 32 4 27 338 344 347 10 344 331 344 271 238 230 234 254
223 96 117 166 158 153 148 146 142 140 143 142 141 141 136 133 127 137 137 128 120 120 116 109 96 81 63 34 27 21 358 103 12 345 335 8 328 336 339 339 344 350 203 296
146 161 176 140 131 137 143 145 147 148 147 142 139 137 136 137 140 134 120 122 116 112 114 114 109 86 54 26 21 356 354 39 1 325 321 322 331 348 336 347 345 343 338 342
163 164 168 159 155 153 151 158 155 152 145 142 140 137 136 138 128 130 131 129 134 128 106 118 112 78 55 29 359 344 36 109 347 332 330 345 353 349 339 346 340 340 344 1
174 168 163 177 171 163 165 164 157 149 144 144 140 139 141 130 130 136 137 123 109 125 142 116 98 80 68 40 357 351 354 7 343 336 355 351 358 344 317 336 352 348 344 1
189 177 180 176 163 159 161 155 149 146 146 141 141 142 133 136 140 128 111 107 111 113 105 79 75 58 80 45 354 334 356 3 351 347 352 9 337 297 345 345 353 346 344 343
195 171 170 167 166 161 153 147 144 139 137 137 131 130 128 129 126 123 123 116 133 132 115 110 121 259 86 56 9 314 12 0 343 344 347 358 325 4 339 351 348 343 349 343
175 166 158 152 154 157 145 140 136 137 135 130 127 126 122 115 114 116 136 153 135 111 112 122 155 82 69 61 13 328 18 359 350 345 353 336 5 343 343 349 343 351 355 339
177 150 145 148 148 138 140 135 138 137 134 129 131 129 123 119 119 136 152 125 111 102 109 89 65 33 71 16 323 33 17 5 348 349 354 3 356 352 346 338 338 357 337 346
146 139 138 138 133 128 129 135 131 122 123 121 122 125 122 124 123 94 74 126 119 161 143 92 81 49 39 333 25 35 19 5 352 354 355 358 358 348 340 335 343 341 344 343
126 123 120 129 128 125 112 112 119 122 125 127 132 135 134 136 138 132 124 115 131 136 97 87 90 59 18 305 41 43 10 353 2 7 344 9 339 351 337 338 339 340 341 345
121 118 119 117 116 115 115 119 116 117 120 125 133 128 138 133 114 93 92 91 102 72 93 111 104 74 306 64 60 35 358 356 25 1 342 346 350 344 340 338 344 344 340 329
118 121 122 125 123 121 124 123 119 126 131 127 125 128 120 111 115 121 119 106 136 125 110 115 119 245 63 69 64 39 338 359 21 330 7 328 338 343 338 349 348 341 330 331
124 128 126 124 124 127 128 132 134 138 133 130 125 118 110 107 108 114 125 136 141 124 125 151 137 217 110 95 52 66 325 331 9 5 336 332 345 333 345 354 341 337 331 323
121 127 121 122 122 133 137 139 136 136 136 131 121 118 115 124 125 125 129 136 137 115 128 137 160 112 61 57 1 30 321 341 44 359 321 336 342 333 353 341 334 328 325 316